This is the latest recevied weather packets stored in our database for station/object KC4BAM. If no packets are shown the sender has not sent any weather packets the latest 10 day(s).
| Time | Temp. | Humidity | Pressure | Rain* | Wind** | Luminosity | Snow |
|---|---|---|---|---|---|---|---|
| 1777121334 | 16.67° C | 99% | 1001.3 hPa | 0 mm | - | 62 W/m² | - |
| 1777121031 | 16.11° C | 99% | 1001.3 hPa | 0 mm | - | 62 W/m² | - |
| 1777120727 | 16.11° C | 99% | 1001.3 hPa | 0 mm | - | 62 W/m² | - |
| 1777120423 | 16.11° C | 99% | 1001.2 hPa | 0 mm | - | 61 W/m² | - |
| 1777120118 | 16.11° C | 99% | 1001.3 hPa | 0 mm | - | 78 W/m² | - |
| 1777119814 | 15.56° C | 99% | 1001.2 hPa | 0 mm | - | 86 W/m² | - |
| 1777119510 | 15.56° C | 99% | 1001.3 hPa | 0 mm | - | 87 W/m² | - |
| 1777119206 | 15.56° C | 99% | 1001 hPa | 0 mm | - | 77 W/m² | - |
| 1777118895 | 15° C | 99% | 1001.2 hPa | 0 mm | - | 62 W/m² | - |
| 1777118592 | 15° C | 99% | 1000.9 hPa | 0 mm | - | 44 W/m² | - |
| 1777118291 | 15° C | 99% | 1001 hPa | 0 mm | - | 33 W/m² | - |
| 1777117989 | 15° C | 99% | 1001 hPa | 0 mm | - | 26 W/m² | - |
| 1777117686 | 15° C | 99% | 1000.8 hPa | 0 mm | - | 22 W/m² | - |
| 1777117383 | 15° C | 99% | 1000.9 hPa | 0 mm | - | 17 W/m² | - |
| 1777117079 | 14.44° C | 99% | 1000.8 hPa | 0 mm | - | 14 W/m² | - |
| 1777116774 | 15° C | 99% | 1000.8 hPa | 0 mm | - | 13 W/m² | - |
| 1777116470 | 15° C | 99% | 1000.5 hPa | 0 mm | - | 11 W/m² | - |
| 1777116167 | 15° C | 99% | 1000.6 hPa | 0 mm | - | 9 W/m² | - |
| 1777115865 | 15° C | 99% | 1000.4 hPa | 0 mm | - | 6 W/m² | - |
| 1777115562 | 15° C | 99% | 1000.7 hPa | 0 mm | - | 4 W/m² | - |
| 1777115258 | 15° C | 99% | 1000.6 hPa | 0 mm | - | 2 W/m² | - |
| 1777114955 | 15° C | 99% | 1000.4 hPa | 0 mm | - | 1 W/m² | - |
| 1777114652 | 15° C | 99% | 1000.6 hPa | 0 mm | - | 1 W/m² | - |
| 1777114352 | 15° C | 99% | 1000.1 hPa | 0 mm | - | 0 W/m² | - |
| 1777114049 | 15° C | 99% | 1000.4 hPa | 0 mm | - | 0 W/m² | - |
* Rain latest hour (hover to see other rain measurements)
** Current wind speed in m/s (hover to see current wind gust speed)